{"data":{"norad_id":62008,"epoch":"2026-05-25T01:38:23.299008Z","epoch_age_seconds":66586,"freshness":"FRESH","line1":"1 62008U 24213A   26145.06832522  .00213543  00000+0  17165-2 0  9993","line2":"2 62008  53.1581  24.5686 0000936  89.2615 270.8510 15.69793249 86913","mean_motion":15.69793249,"eccentricity":9.36e-5,"inclination_deg":53.1581,"raan_deg":24.5686,"arg_perigee_deg":89.2615,"mean_anomaly_deg":270.851,"bstar":0.0017165,"rev_number":8691,"period_min":91.731825252613,"perigee_km":358.85789242587,"apogee_km":360.11917592587,"semimajor_km":6737.6255341759,"source":"CELESTRAK","updated_at":"2026-05-25T13:38:19.518132Z"}}